Regional Weather Roundup
Issued by NWS Little Rock, AR

Home | Current Version | Previous Version | Text Only | Print | Product List | Glossary Off
Versions: 1 2 3 4 5 6 7 8 9 10 11 12 13 14 15 16 17 18 19 20 21 22 23 24 25 26 27 28 29 30 31

000
ASUS44 KLZK 200012
RWRLZK

WEATHER ROUNDUP FOR ARKANSAS
NATIONAL WEATHER SERVICE LITTLE ROCK AR
700 PM CDT THU OCT 19 2017

NOTE: "FAIR" INDICATES FEW OR NO CLOUDS BELOW 12,000 FEET WITH NO
SIGNIFICANT WEATHER AND/OR OBSTRUCTIONS TO VISIBILITY.

ARZ001-003-010-029-200100-
NORTHWEST ARKANSAS

CITY           SKY/WX    TMP DP  RH WIND       PRES   REMARKS
FAYETTEVILLE   CLEAR     61  52  72 CALM      30.15R
6HR MIN TEMP:  61; 6HR MAX TEMP:  79;

FORT SMITH     MOCLDY    73  55  53 CALM      30.11S
6HR MIN TEMP:  73; 6HR MAX TEMP:  81;

HARRISON       PTCLDY    67  47  48 SE6       30.16S
6HR MIN TEMP:  67; 6HR MAX TEMP:  80;

BENTONVILLE    CLOUDY    70  51  51 S5        30.15S
6HR MIN TEMP:  70; 6HR MAX TEMP:  77;

ROGERS         PTCLDY    67  55  65 SE6       30.15S
6HR MIN TEMP:  67; 6HR MAX TEMP:  77;

SILOAM SPGS    PTCLDY    68  52  56 S6        30.14S
6HR MIN TEMP:  68; 6HR MAX TEMP:  78;

HIGHFILL       PTCLDY    68  52  56 S7        30.14S
6HR MIN TEMP:  68; 6HR MAX TEMP:  77;

SPRINGDALE     MOCLDY    70  52  52 S6        30.16R
$$

ARZ004-005-016-200100-
NORTH CENTRAL ARKANSAS

CITY           SKY/WX    TMP DP  RH WIND       PRES   REMARKS
BATESVILLE     PTCLDY    69  53  56 SE6       30.18R
6HR MIN TEMP:  69; 6HR MAX TEMP:  81;

FLIPPIN        CLOUDY    72  52  49 CALM      30.15S
6HR MIN TEMP:  72; 6HR MAX TEMP:  83;

MTN HOME       CLOUDY    68  48  48 S3        30.15R
6HR MIN TEMP:  68; 6HR MAX TEMP:  82;

$$

ARZ040-041-200100-
WEST CENTRAL ARKANSAS

CITY           SKY/WX    TMP DP  RH WIND       PRES   REMARKS
MENA           CLOUDY    70  52  52 CALM      30.15S
$$

ARZ009-017-025-026-028-200100-
NORTHEAST ARKANSAS

CITY           SKY/WX    TMP DP  RH WIND       PRES   REMARKS
JONESBORO      CLEAR     67  50  54 S5        30.18R
6HR MIN TEMP:  67; 6HR MAX TEMP:  80;

NEWPORT        CLOUDY    63  53  70 S6        30.18R
6HR MIN TEMP:  63; 6HR MAX TEMP:  79;

WALNUT RIDGE   CLEAR     65  50  58 S7        30.17S
6HR MIN TEMP:  64; 6HR MAX TEMP:  80;

BLYTHEVILLE    CLEAR     67  54  63 SE3       30.19R
6HR MIN TEMP:  67; 6HR MAX TEMP:  78;

$$

ARZ022-023-033-042-044-200100-
CENTRAL ARKANSAS

CITY           SKY/WX    TMP DP  RH WIND       PRES   REMARKS
LITTLE ROCK    PTCLDY    69  56  62 S6        30.16R
6HR MIN TEMP:  69; 6HR MAX TEMP:  79;

JACKSONVILLE   MOCLDY    67  56  67 E6        30.15S
6HR MIN TEMP:  67; 6HR MAX TEMP:  81;

SEARCY         CLOUDY    66  55  67 MISG        N/A  HAZE
6HR MIN TEMP:  66; 6HR MAX TEMP:  81;

HOT SPRINGS    PTCLDY    70  54  56 E5        30.16R
6HR MIN TEMP:  70; 6HR MAX TEMP:  80;

RUSSELLVILLE   PTCLDY    67  57  70 SE3       30.13S
6HR MIN TEMP:  66; 6HR MAX TEMP:  81;

CLINTON        FAIR      64  59  82 CALM      30.16S
$$

ARZ036-200100-
EAST ARKANSAS

CITY           SKY/WX    TMP DP  RH WIND       PRES   REMARKS
WEST MEMPHIS   CLEAR     60  54  80 CALM      30.18R
6HR MIN TEMP:  60; 6HR MAX TEMP:  76;

$$

ARZ050-053-066-070-073-200100-
SOUTHWEST ARKANSAS

CITY           SKY/WX    TMP DP  RH WIND       PRES   REMARKS
ARKADELPHIA    FAIR      63  60  90 CALM      30.15S
6HR MIN TEMP:  63; 6HR MAX TEMP:  80;

CAMDEN         PTCLDY    64  57  77 CALM      30.14S
TEXARKANA      PTCLDY    70  54  56 SE7       30.13S
6HR MIN TEMP:  70; 6HR MAX TEMP:  80;

EL DORADO      MOCLDY    65  60  84 CALM      30.15S
6HR MIN TEMP:  65; 6HR MAX TEMP:  78;

DE QUEEN       PTCLDY    66  53  63 CALM      30.11S
6HR MIN TEMP:  66; 6HR MAX TEMP:  82;

$$

ARZ056-057-069-200100-
SOUTHEAST ARKANSAS

CITY           SKY/WX    TMP DP  RH WIND       PRES   REMARKS
PINE BLUFF     CLEAR     69  49  48 SE6       30.17R
6HR MIN TEMP:  68; 6HR MAX TEMP:  80;

STUTTGART      CLOUDY    69  53  56 SE8       30.18R
6HR MIN TEMP:  69; 6HR MAX TEMP:  81;

MONTICELLO     CLOUDY    64  58  80 CALM      30.17R
6HR MIN TEMP:  64; 6HR MAX TEMP:  79;


$$






USA.gov is the U.S. government's official web portal to all federal, state and local government web resources and services.